Regional Weather Roundup
Issued by NWS

Home | Current Version | Previous Version | Graphics & Text | Print | Product List | Glossary On
Versions: 1 2 3 4 5 6 7 8 9 10 11 12 13 14 15 16 17 18 19 20 21 22 23 24 25 26 27 28 29 30 31 32 33 34 35 36 37 38 39 40 41 42 43 44 45 46 47 48 49 50
000
ASUS43 KFSD 250502
RWRSD

WEATHER ROUNDUP FOR SOUTH DAKOTA
NATIONAL WEATHER SERVICE SIOUX FALLS SD
1200 AM CDT MON SEP 25 2017

NOTE: "FAIR" INDICATES FEW OR NO CLOUDS BELOW 12,000 FEET WITH NO
SIGNIFICANT WEATHER AND/OR OBSTRUCTIONS TO VISIBILITY.


SDZ001>005-009-010-012>017-250600-
NORTHWEST AND NORTH CENTRAL SOUTH DAKOTA

CITY           SKY/WX    TMP DP  RH WIND       PRES   REMARKS
BUFFALO          N/A     44  42  93 CALM      30.07S
FAITH            N/A     46  44  93 N10       30.11S
MOBRIDGE       CLOUDY    51  46  83 N12       30.07S
$$

SDZ012>016-024>037-041>051-057-063-072>074-250600-
SOUTHWEST AND SOUTH CENTRAL SOUTH DAKOTA

CITY           SKY/WX    TMP DP  RH WIND       PRES   REMARKS
RAPID CTY ARPT NOT AVBL
PIERRE         LGT RAIN  49  46  90 N12       30.08R
CUSTER         CLOUDY    39  36  89 NE6       30.09S
ELLSWORTH AFB  CLOUDY    45  45 100 N8        30.12
PHILIP         CLOUDY    49  46  90 N7        30.11R
PINE RIDGE     CLOUDY    46  44  93 NE6       30.10F
SPEARFISH      LGT RAIN  41  41 100 CALM      30.13S
WINNER         CLOUDY    52  49  89 N8        30.08R
$$

SDZ004>011-016>023-039-040-250600-
NORTHEAST SOUTH DAKOTA

CITY           SKY/WX    TMP DP  RH WIND       PRES   REMARKS
ABERDEEN       CLOUDY    51  48  89 N12       30.06S
WATERTOWN      CLOUDY    51  50  96 N10       30.02R
BROOKINGS      CLOUDY    53  51  93 N10       30.03R
SISSETON         N/A     53  49  86 NW9       30.03R
$$

SDZ017-020-022-023-036>040-048>070-250600-
SOUTHEAST SOUTH DAKOTA

CITY           SKY/WX    TMP DP  RH WIND       PRES   REMARKS
SIOUX FALLS    RAIN      56  55  97 N10       30.00R FOG
HURON          CLOUDY    52  49  89 N10       30.05R
CHAMBERLAIN    CLOUDY    54  50  88 N13G18    30.07S
MITCHELL       CLOUDY    54  50  86 N8        30.05R
YANKTON        LGT RAIN  54  53  97 N12       30.00S
$$

ABBREVIATIONS USED IN REMARKS
   TC - TEMPERATURE IN CELSIUS
  WCI - WIND CHILL INDEX
   HX - HEAT INDEX
  VSB - VISIBILITY





USA.gov is the U.S. government's official web portal to all federal, state and local government web resources and services.